#timestamp,LO_Frequency,Hit,StdDev 
1542830415.3,286047003.1,N
1542830435.2,286047004.0,N
1542830455.0,286047001.4,N
1542830455.9,286047001.4,N
1542830475.8,286047001.8,N
1542830495.6,286047003.8,N
1542830515.4,286047005.5,Y
1542830535.3,286047003.5,P
1542830555.1,286047005.4,P
1542830575.8,286047005.0,P
1542830595.7,286047010.5,Y
1542830615.5,286047005.7,P
1542830635.4,286047005.9,P
1542830655.2,286047005.9,P
1542830675.0,286047005.8,Y
1542830675.9,286047005.8,P
1542830695.8,286047000.9,P
1542830715.6,286046999.8,N
1542830735.4,286047003.5,N
1542830755.3,286047006.8,N
1542830775.1,286047010.8,Y
1542830795.9,286047006.2,P
1542830815.7,286047009.1,P
1542830835.5,286047008.1,P
1542830855.4,286047008.7,Y
1542830875.2,286047001.9,P
1542830895.1,286047002.5,N
1542830896.0,286047002.5,N
1542830915.8,286047002.4,N
1542830935.6,286047003.2,N
1542830955.5,286047005.6,Y
1542830975.3,286047001.9,P
1542830995.1,286047002.7,P
1542831015.9,286046999.7,N
1542831035.7,286047003.7,N
1542831055.6,286047005.6,Y
1542831075.4,286047004.1,P
1542831095.2,286047003.5,P
1542831115.1,286047001.3,N
1542831116.0,286047001.3,N
1542831135.8,286047003.5,Y
1542831155.7,286047002.4,P
1542831175.5,286047000.3,P
1542831195.3,286047001.9,N
1542831215.2,286047004.4,Y
1542831235.0,286047002.8,P
1542831235.9,286047002.8,P
1542831255.7,286047002.0,P
1542831275.6,286047002.0,Y
1542831295.4,286046998.9,P
1542831315.3,286046999.2,N
1542831335.1,286046999.3,N
1542831336.0,286046999.3,N
1542831355.8,286046999.8,N
1542831375.7,286047003.9,Y
1542831395.5,286047004.9,P
1542831415.4,286047007.5,N
1542831435.2,286047004.4,N
1542831455.0,286047001.8,N
1542831455.9,286047001.8,N
1542831475.8,286047000.4,N
1542831495.6,286047001.2,N
1542831515.4,286047001.6,N
1542831535.3,286046998.5,N
1542831555.1,286047004.3,N
1542831575.8,286047000.7,N
1542831595.7,286047001.2,N
1542831615.5,286046996.8,N
1542831635.4,286046997.0,N
1542831655.2,286046998.9,N
1542831675.0,286046999.5,N
1542831675.9,286046999.5,N
1542831695.8,286047001.2,N
1542831715.6,286047005.6,N
1542831735.4,286047006.6,N
1542831755.3,286047007.6,N
1542831775.1,286047005.6,N
1542831795.9,286047005.8,N
1542831815.7,286047001.6,N
1542831835.5,286047011.9,Y
1542831855.4,286046994.4,P
1542831875.2,286046994.0,N
1542831895.0,286046994.4,N
1542831895.9,286046994.4,N
1542831915.8,286046993.8,N
1542831935.6,286046994.2,N
1542831955.5,286046991.9,N
1542831975.3,286046993.0,N
1542831995.1,286046992.4,N
1542832015.9,286046994.0,N
1542832035.7,286046995.9,N
1542832055.6,286046998.0,N
1542832075.4,286046995.3,N
1542832095.2,286046995.4,N
1542832115.1,286047001.0,N
1542832116.0,286047001.0,N
1542832135.8,286046999.2,N
1542832155.6,286046997.0,N
1542832175.5,286046995.8,N
1542832195.3,286046993.3,N
1542832215.2,286046994.8,N
1542832235.9,286046993.6,N
1542832255.7,286046993.2,N
1542832275.6,286046990.4,Y
1542832295.4,286046997.2,P
1542832315.2,286046997.0,P
1542832335.1,286046997.1,P
1542832336.0,286046997.1,Y
1542832355.8,286047002.5,P
1542832375.7,286047002.6,N
1542832395.5,286047001.8,N
1542832415.3,286047002.8,N
1542832435.2,286047000.4,N
1542832455.0,286047001.6,N
1542832455.9,286047001.6,N
1542832475.8,286047004.2,N
1542832495.6,286047004.8,N
1542832515.4,286047005.0,N
1542832535.3,286047006.6,N
1542832555.1,286047008.0,Y
1542832575.8,286047002.9,P
1542832595.7,286047003.6,P
1542832615.5,286047002.9,P
1542832635.4,286047005.3,Y
1542832655.2,286047004.2,P
1542832675.0,286047004.8,P
1542832675.9,286047004.8,P
1542832695.8,286047005.2,Y
1542832715.6,286046998.8,P
1542832735.4,286046998.8,N
1542832755.3,286046998.1,N
1542832775.1,286047001.2,N
1542832795.9,286047000.9,N
1542832815.7,286046999.7,N
1542832835.5,286047001.8,N
1542832855.4,286047003.3,N
1542832875.2,286047005.5,N
1542832895.0,286047005.3,N
1542832895.9,286047005.3,N
1542832915.8,286047005.4,N
1542832935.6,286047007.4,N
1542832955.5,286047003.0,N
1542832975.3,286047006.9,N
1542832995.1,286047001.5,N
1542833015.9,286046999.8,N
1542833035.7,286047000.7,N
1542833055.5,286047002.5,N
1542833075.4,286046998.6,N
1542833095.2,286046999.0,N
1542833115.0,286046999.6,N
1542833116.0,286046999.6,N
1542833135.8,286046998.5,N
1542833155.6,286046999.4,N
1542833175.5,286046999.6,N
1542833195.3,286046995.4,N
1542833215.1,286046995.8,N
1542833235.9,286046994.9,N
1542833255.7,286046996.2,N
1542833275.6,286046993.4,N
1542833295.4,286046994.7,N
1542833315.2,286046993.4,N
1542833335.1,286046993.7,N
1542833336.0,286046993.7,N
1542833355.8,286046996.2,N
1542833375.6,286046997.9,N
1542833395.5,286046993.7,N
1542833415.3,286046992.4,N
1542833435.1,286046993.4,N
1542833485.9,286046996.3,E
1542833495.8,286046996.0,N
1542833515.7,286046997.7,P
1542833535.5,286046996.1,P
1542833555.4,286046992.1,Y
1542833575.2,286046995.9,P
1542833595.0,286046995.1,P
1542833595.9,286046995.1,P
1542833615.8,286046995.4,Y
1542833635.6,286047000.6,P
1542833655.4,286047004.4,N
1542833675.3,286047003.8,N
1542833695.1,286047005.3,N
1542833715.9,286047005.9,N
1542833735.7,286047004.6,N
1542833755.5,286047004.9,N
1542833775.4,286047005.3,N
1542833795.2,286047003.5,N
1542833815.0,286047001.9,N
1542833815.9,286047011.9,Y
1542833835.8,286046998.1,P
1542833855.6,286047004.3,N
1542833875.5,286047009.1,P
1542833895.3,286047005.3,N
1542833915.1,286047003.4,N
1542833935.9,286047003.9,N
1542833955.7,286047000.3,N
1542833975.5,286047000.6,N
1542833995.4,286047000.5,N
